N8JE-13 Weather Reports


time (UTC)temp
C
wind
direction
speed
KPH
gust
KPH
rain 1hr
cm
rain 24hr
cm
rain mn
cm
humidity
%
barometer
mb
20260504184551 22 267 8.0 11.3 0.00 0.03 0.00 54 1006.8
20260504184051 22 235 16.1 20.9 0.00 0.03 0.00 53 1006.8
20260504183551 22 233 12.9 25.7 0.00 0.03 0.00 53 1006.7
20260504183050 22 250 14.5 25.7 0.00 0.03 0.00 52 1006.5
20260504182550 22 285 11.3 11.3 0.00 0.03 0.00 53 1006.4
20260504182050 22 230 11.3 12.9 0.00 0.03 0.00 51 1006.4
20260504181550 22 191 16.1 14.5 0.00 0.03 0.00 53 1006.5
20260504181052 22 231 22.5 29.0 0.00 0.03 0.00 52 1006.4
20260504180552 22 235 16.1 25.7 0.00 0.03 0.00 53 1006.3
20260504180051 22 214 12.9 29.0 0.00 0.03 0.00 53 1006.5
20260504175550 22 238 16.1 20.9 0.00 0.03 0.00 53 1006.5
20260504175050 22 250 12.9 20.9 0.00 0.03 0.00 52 1006.5
20260504174550 22 254 9.7 11.3 0.00 0.03 0.00 53 1006.6
20260504174050 22 251 9.7 25.7 0.00 0.03 0.00 52 1006.6
20260504173552 22 252 8.0 19.3 0.00 0.03 0.00 54 1006.6
20260504173051 22 257 14.5 22.5 0.00 0.03 0.00 52 1006.7
20260504172551 22 232 11.3 19.3 0.00 0.03 0.00 53 1006.7
20260504172051 21 277 9.7 19.3 0.00 0.03 0.00 54 1006.8
20260504171551 21 231 9.7 22.5 0.00 0.03 0.00 54 1006.8
20260504171050 21 243 19.3 29.0 0.00 0.03 0.00 54 1006.9
20260504170552 21 226 11.3 16.1 0.00 0.03 0.00 55 1006.8
20260504151052 17 244 14.5 22.5 0.00 0.03 0.00 63 1008.1
20260504150553 17 227 12.9 20.9 0.00 0.03 0.00 62 1008.0
20260504141052 15 246 11.3 16.1 0.00 0.03 0.00 63 1008.4
20260504140552 15 220 11.3 16.1 0.00 0.03 0.00 64 1008.5
20260504130552 13 215 11.3 14.5 0.00 0.03 0.00 65 1009.0
20260504110552 10 228 4.8 9.7 0.00 0.03 0.00 69 1008.7
20260504100552 10 223 4.8 9.7 0.00 0.03 0.00 67 1009.1
20260504081550 10 219 8.0 9.7 0.00 0.03 0.00 66 1010.0
20260504081052 11 211 4.8 8.0 0.00 0.03 0.00 65 1010.0
20260504080552 10 210 4.8 9.7 0.00 0.03 0.00 65 1010.1
20260504050550 11 218 3.2 9.7 0.00 0.03 0.00 62 1012.0
20260504045551 11 213 8.0 11.3 0.00 0.03 0.00 63 1012.0
20260504045051 11 227 3.2 4.8 0.00 0.03 0.00 63 1012.1
20260504044551 11 219 8.0 9.7 0.00 0.03 0.00 64 1012.1
20260504044050 11 208 3.2 4.8 0.00 0.03 0.00 64 1012.0
20260504043550 11 214 4.8 8.0 0.00 0.03 0.00 64 1012.1
20260504043050 11 223 3.2 8.0 0.00 0.03 0.00 64 1012.1
20260504042551 11 211 3.2 8.0 0.00 0.03 0.00 65 1012.2
20260504042051 11 200 4.8 4.8 0.00 0.03 0.00 65 1012.3
20260504041550 11 220 1.6 3.2 0.00 0.03 0.00 65 1012.4
20260504041051 11 228 3.2 4.8 0.00 0.03 0.00 66 1012.4
20260504040551 11 204 4.8 9.7 0.00 0.03 0.00 66 1012.4
20260504040051 11 196 3.2 8.0 0.00 0.03 0.00 66 1012.5
20260504035551 11 198 3.2 8.0 0.00 0.03 0.03 67 1012.5
20260504035051 11 204 4.8 9.7 0.00 0.03 0.03 67 1012.6
20260504034551 11 194 3.2 8.0 0.00 0.03 0.03 67 1012.6
20260504034050 11 185 3.2 9.7 0.00 0.03 0.03 67 1012.7
20260504033550 10 178 4.8 4.8 0.00 0.03 0.03 68 1012.8
20260504033050 10 189 3.2 8.0 0.00 0.03 0.03 67 1012.8
20260504032551 10 183 4.8 8.0 0.00 0.03 0.03 67 1012.9
20260504032051 10 198 4.8 9.7 0.00 0.03 0.03 67 1012.9
20260504031550 10 202 3.2 8.0 0.00 0.03 0.03 67 1012.9
20260504031050 10 187 4.8 4.8 0.00 0.03 0.03 67 1013.0
20260504030550 10 196 3.2 4.8 0.00 0.03 0.03 67 1013.1
20260504030052 10 188 4.8 11.3 0.00 0.03 0.03 67 1013.1
20260504025552 10 197 4.8 8.0 0.00 0.03 0.03 67 1013.1
20260504025052 10 206 4.8 4.8 0.00 0.03 0.03 67 1013.2
20260504024552 10 198 4.8 9.7 0.00 0.03 0.03 68 1013.2
20260504024051 10 209 3.2 8.0 0.00 0.03 0.03 69 1013.2
20260504023551 10 185 3.2 4.8 0.00 0.03 0.03 68 1013.2
20260504023051 10 186 3.2 4.8 0.00 0.03 0.03 69 1013.2
20260504022551 10 164 4.8 8.0 0.00 0.03 0.03 69 1013.2
20260504022052 10 190 3.2 8.0 0.00 0.03 0.03 70 1013.1
20260504021552 10 173 4.8 9.7 0.00 0.03 0.03 70 1013.2
20260504021051 10 190 3.2 9.7 0.00 0.03 0.03 71 1013.3
20260504020552 10 183 4.8 9.7 0.00 0.03 0.03 71 1013.4
20260504020052 10 223 3.2 3.2 0.00 0.03 0.03 72 1013.4
20260504015552 10 173 4.8 4.8 0.00 0.03 0.03 73 1013.3
20260504015052 10 166 4.8 9.7 0.00 0.03 0.03 73 1013.3
20260504014552 10 183 4.8 8.0 0.00 0.03 0.03 74 1013.3
20260504014052 9 163 3.2 4.8 0.00 0.03 0.03 76 1013.3
20260504013552 9 171 1.6 3.2 0.00 0.03 0.03 77 1013.3
20260504013051 9 161 1.6 3.2 0.00 0.03 0.03 77 1013.3
20260504012553 9 171 1.6 3.2 0.00 0.03 0.03 77 1013.3
20260504012052 9 167 1.6 3.2 0.00 0.03 0.03 78 1013.4
20260504011552 9 192 1.6 3.2 0.00 0.03 0.03 78 1013.3
20260504011051 9 178 0.0 0.0 0.00 0.03 0.03 78 1013.5
20260504010551 9 174 0.0 0.0 0.00 0.03 0.03 78 1013.5
20260504010051 9 182 1.6 4.8 0.00 0.03 0.03 78 1013.4
20260504005551 9 122 0.0 1.6 0.00 0.03 0.03 78 1013.3
20260504005051 9 142 1.6 3.2 0.00 0.03 0.03 78 1013.4
20260504004551 9 144 1.6 3.2 0.00 0.03 0.03 77 1013.3
20260504004051 9 142 3.2 8.0 0.00 0.03 0.03 77 1013.3
20260504003551 9 161 3.2 8.0 0.00 0.03 0.03 78 1013.5
20260504003051 9 131 0.0 1.6 0.00 0.03 0.03 79 1013.5
20260504002551 9 100 1.6 4.8 0.00 0.03 0.03 79 1013.4
20260504002051 9 150 1.6 1.6 0.00 0.03 0.03 78 1013.6
20260504001551 10 149 1.6 3.2 0.00 0.03 0.03 78 1013.8
20260504001051 10 199 0.0 0.0 0.00 0.03 0.03 78 1013.7
20260504000551 10 135 0.0 1.6 0.00 0.03 0.03 77 1013.6
20260504000050 10 131 1.6 3.2 0.00 0.03 0.03 77 1013.6
20260503235552 10 166 3.2 3.2 0.00 0.03 0.03 78 1013.6
20260503235052 10 131 3.2 3.2 0.00 0.03 0.03 78 1013.6
20260503234552 10 146 3.2 8.0 0.00 0.03 0.03 78 1013.4
20260503234052 10 130 3.2 4.8 0.00 0.03 0.03 78 1013.5
20260503233551 10 126 1.6 8.0 0.00 0.03 0.03 79 1013.6
20260503233052 10 144 1.6 4.8 0.03 0.03 0.03 79 1013.7
20260503232552 10 139 1.6 3.2 0.03 0.03 0.03 80 1013.7
20260503232052 10 133 3.2 4.8 0.03 0.03 0.03 79 1013.7
20260503231551 9 135 1.6 4.8 0.03 0.03 0.03 80 1013.8
20260503231050 9 131 3.2 8.0 0.03 0.03 0.03 80 1013.9
20260503230550 9 142 1.6 4.8 0.03 0.03 0.03 80 1014.0
20260503230052 9 147 0.0 0.0 0.03 0.03 0.03 80 1014.1
20260503225551 9 120 0.0 0.0 0.03 0.03 0.03 80 1014.2
20260503225051 9 104 0.0 1.6 0.03 0.03 0.03 80 1014.3
20260503224551 9 132 1.6 4.8 0.03 0.03 0.03 78 1014.5
20260503224051 9 109 0.0 0.0 0.03 0.03 0.03 77 1014.8
20260503223550 9 164 0.0 1.6 0.03 0.03 0.03 77 1015.2
20260503223051 9 209 0.0 1.6 0.00 0.00 0.00 77 1015.6
20260503222551 10 263 3.2 4.8 0.00 0.00 0.00 75 1015.7
20260503222051 10 259 4.8 9.7 0.00 0.00 0.00 73 1015.8
20260503221551 10 244 9.7 20.9 0.00 0.00 0.00 70 1015.8
20260503221050 10 241 8.0 12.9 0.00 0.00 0.00 67 1015.8
20260503220550 11 294 11.3 22.5 0.00 0.00 0.00 64 1015.7
20260503220052 12 236 3.2 4.8 0.00 0.00 0.00 59 1015.5
20260503215552 12 248 12.9 29.0 0.00 0.00 0.00 55 1015.5
20260503215052 12 250 8.0 9.7 0.00 0.00 0.00 53 1015.2
20260503214551 12 237 14.5 24.1 0.00 0.00 0.00 49 1015.0
20260503214050 13 261 9.7 16.1 0.00 0.00 0.00 48 1015.0
20260503213550 13 223 9.7 16.1 0.00 0.00 0.00 46 1014.9
20260503213050 14 323 12.9 25.7 0.00 0.00 0.00 42 1014.8
20260503212552 15 232 4.8 9.7 0.00 0.00 0.00 40 1014.7
20260503212052 15 283 8.0 11.3 0.00 0.00 0.00 40 1014.7
20260503211552 15 244 8.0 9.7 0.00 0.00 0.00 40 1014.6
20260503211051 15 231 8.0 9.7 0.00 0.00 0.00 40 1014.7
20260503210551 15 262 11.3 16.1 0.00 0.00 0.00 40 1014.7
20260503210052 15 240 16.1 22.5 0.00 0.00 0.00 39 1014.7
20260503205552 15 240 8.0 11.3 0.00 0.00 0.00 39 1014.7
20260503205052 15 243 8.0 12.9 0.00 0.00 0.00 39 1014.8
20260503204550 15 228 19.3 24.1 0.00 0.00 0.00 38 1014.9
20260503204050 15 244 11.3 14.5 0.00 0.00 0.00 38 1015.0
20260503203552 15 254 3.2 8.0 0.00 0.00 0.00 38 1015.0
20260503203052 15 181 4.8 9.7 0.00 0.00 0.00 40 1015.1
20260503202552 15 225 11.3 9.7 0.00 0.00 0.00 37 1015.0
20260503202051 16 227 9.7 14.5 0.00 0.00 0.00 37 1015.1
20260503201550 16 252 3.2 9.7 0.00 0.00 0.00 38 1015.2
20260503201052 16 220 14.5 33.8 0.00 0.00 0.00 36 1015.1
20260503200552 16 257 4.8 9.7 0.00 0.00 0.00 38 1015.1
20260503200052 16 239 4.8 9.7 0.00 0.00 0.00 37 1015.2
20260503195552 16 216 11.3 19.3 0.00 0.00 0.00 36 1015.3
20260503195051 16 228 3.2 9.7 0.00 0.00 0.00 37 1015.2
20260503194551 16 224 11.3 22.5 0.00 0.00 0.00 37 1015.3
20260503194051 16 254 9.7 12.9 0.00 0.00 0.00 36 1015.4
20260503193551 16 245 8.0 12.9 0.00 0.00 0.00 38 1015.5
20260503193052 16 276 4.8 11.3 0.00 0.00 0.00 36 1015.6
20260503192552 16 251 4.8 11.3 0.00 0.00 0.00 35 1015.8
20260503192050 16 243 8.0 16.1 0.00 0.00 0.00 37 1015.9
20260503191550 16 219 8.0 20.9 0.00 0.00 0.00 38 1015.7
20260503191050 16 213 11.3 16.1 0.00 0.00 0.00 37 1015.9
20260503190550 16 257 11.3 11.3 0.00 0.00 0.00 35 1016.0
20260503190052 16 221 11.3 12.9 0.00 0.00 0.00 36 1016.0
20260503185552 16 238 8.0 9.7 0.00 0.00 0.00 36 1016.2
20260503185051 16 250 12.9 14.5 0.00 0.00 0.00 37 1016.2